Location: Unspecified
(0.0000°N, 0.0000°E)
Time: 03:19:29
(UTC+00:00)

Vanguard 2 Rocket - Pass Details

Date: 13 December 2018
Orbit: 556 x 3325 km, 32.9° (Epoch: 18 March)

Event Time Altitude Azimuth Distance (km) Brightness Sun altitude
Rises 01:55:02 0° 230° (SW) 5,470 - -52.6°
Reaches altitude 10° 01:59:26 10° 226° (SW) 3,996 - -51.7°
Maximum altitude 02:08:47 58° 149° (SSE) 1,250 - -49.9°
Drops below altitude 10° 02:14:11 10° 70° (ENE) 2,358 - -48.8°
Sets 02:16:10 0° 66° (ENE) 3,100 - -48.4°
